Weather in Krugloozernoye

Russia / Novosibirsk Oblast     55°04′45″N   79°17′49″E
temp.,
°C
wind,
m/s
gust,
m/s
humid.,
%
clouds,
%
prec.,
mm/h
press.,
hPa
HPBL,
m
5 december, sun
sun501:00−3ssw4996100 0.1 1028311
04:00−2ssw51195100 0.1 1028470
07:00−2ssw61295100 0.1 1026491
10:00−2ssw6129482 0.0 1024393
13:000sw6139494 0.0 1023494
16:00−1ssw61294100 0.0 1021363
19:00−3ssw61493100 0.0 1021302
22:00−4sw6149287 0.0 1021289
6 december, mon
mon601:00−4ssw6149087 0.0 1020286
04:00−4sw5149254 0.0 1019269
07:00−4ssw51393100 0.0 1018237
10:00−6ssw41094100 0.0 1019172
13:00−5ssw3894100 0.0 1018187
16:00−6ssw3695100 0.0 1017125
19:00−7ssw3796100 0.0 1016134
22:00−6ssw4995100 0.0 1014205
7 december, tue
tue701:00−4sw41197100 0.3 1013390
04:00−3sw61395100 0.4 1012595
07:00−4w61294100 0.9 1014449
10:00−8wnw61193100 0.3 1018470
13:00−12wnw61192100 0.3 1023466
16:00−15wnw5109371 0.0 1027333
19:00−20w38985 0.0 1031110
22:00−24w34995 0.0 103452
8 december, wed
wed801:00−27wsw2210037 0.0 103634
04:00−27wsw2210043 0.0 103733
07:00−27sw2410051 0.0 103749
10:00−27sw2410053 0.0 103737
13:00−21sw36975 0.0 1037139
16:00−21sw24975 0.0 103667
19:00−24wsw2210069 0.0 103836
22:00−25w2210088 0.0 103933
9 december, thu
thu901:00−27w2210033 0.0 104016
04:00−27wsw2210025 0.0 104121
07:00−27wsw221005 0.0 104226
10:00−27sw2210045 0.0 104322
13:00−20sw369776 0.0 1043137
16:00−19sw36955 0.0 1043124
19:00−21ssw389556 0.0 1043109
22:00−19ssw4109177 0.0 1042171